Date,TemperatureHighF,TemperatureAvgF,TemperatureLowF,DewpointHighF,DewpointAvgF,DewpointLowF,HumidityHigh,HumidityAvg,HumidityLow,PressureMaxIn,PressureMinIn,WindSpeedMaxMPH,WindSpeedAvgMPH,GustSpeedMaxMPH,PrecipitationSumIn
2013-8-1,68,58,53,56,52,50,88,80,62,30.21,30.16,21,10,24,0.00
2013-8-2,63,58,55,56,53,50,86,82,75,30.29,30.19,15,6,17,0.04
2013-8-3,64,56,53,55,50,47,84,81,72,30.30,30.07,8,2,10,0.00
2013-8-4,68,56,53,56,49,48,89,78,63,30.07,29.97,14,3,15,0.00
2013-8-5,67,55,51,55,49,46,90,81,63,30.03,29.94,17,7,18,0.00
2013-8-6,64,55,50,55,49,46,91,80,67,30.01,29.93,12,5,14,0.00
2013-8-7,67,55,51,56,50,47,91,82,63,30.02,29.95,18,7,18,0.00
2013-8-8,60,56,52,55,51,47,93,85,78,30.02,29.96,21,9,21,0.00
2013-8-9,67,57,52,56,51,47,91,80,63,29.96,29.83,14,4,15,0.00
2013-8-10,56,54,52,52,49,47,88,84,81,30.14,29.85,18,4,18,0.00
2013-8-11,65,56,52,56,51,47,89,84,68,30.18,30.12,15,8,17,0.02
2013-8-12,67,57,52,56,51,48,90,82,66,30.19,30.12,13,6,16,0.00
2013-8-13,69,59,52,56,51,48,86,77,56,30.21,30.05,8,3,14,0.00
2013-8-14,69,58,51,58,52,47,85,79,62,30.06,30.01,8,2,10,0.00
2013-8-15,68,58,53,59,53,48,87,82,70,30.11,30.02,5,2,7,0.01
2013-8-16,70,60,53,60,54,48,88,79,65,30.13,30.08,8,2,11,0.00
2013-8-17,70,63,56,59,56,51,88,77,61,30.19,30.09,11,5,12,0.00
2013-8-18,71,60,54,58,53,48,87,77,52,30.25,30.17,14,4,14,0.01
2013-8-19,70,58,52,58,52,47,87,80,64,30.26,30.17,13,4,14,0.00
2013-8-20,66,57,50,54,50,46,87,78,63,30.30,30.22,7,2,8,0.00
2013-8-21,79,60,49,55,49,44,86,69,33,30.22,30.08,6,2,7,0.00
2013-8-22,79,59,49,54,50,44,90,73,36,30.08,29.92,17,4,20,0.00
2013-8-23,71,62,54,58,54,50,86,77,57,30.00,29.93,13,6,14,0.00
2013-8-24,71,60,51,59,54,47,87,80,61,30.04,29.97,8,3,11,0.00
2013-8-25,70,57,47,55,49,42,85,74,55,30.06,29.97,9,2,12,0.00
2013-8-26,70,58,49,56,51,44,86,76,52,30.01,29.94,8,2,11,0.00
2013-8-27,66,58,54,55,52,50,87,80,65,30.03,29.92,13,2,16,0.22
2013-8-28,68,61,55,62,56,50,90,83,72,30.01,29.93,8,2,9,0.17
2013-8-29,68,59,56,62,55,51,92,85,78,30.08,29.92,11,2,14,0.48
2013-8-30,73,63,53,61,57,52,98,80,59,30.27,30.08,8,2,11,0.00
2013-8-31,71,61,52,60,56,52,99,86,64,30.13,29.87,8,2,14,0.00